W2JV-2 Weather Reports


Display with metric or nautical units.
time (UTC)temp
F
wind
direction
speed
MPH
gust
MPH
rain 1hr
in
rain 24hr
in
rain mn
in
humidity
%
barometer
mb
20260505011003 59 214 2.0 7.0 0.00 0.00 0.00 59 1010.8
20260505010503 59 227 2.0 5.0 0.00 0.00 0.00 59 1010.8
20260505010003 59 225 2.0 9.0 0.00 0.00 0.00 59 1010.7
20260505005503 59 229 2.0 6.0 0.00 0.00 0.00 60 1010.7
20260505005004 59 202 1.0 6.0 0.00 0.00 0.00 59 1010.6
20260505004502 59 210 1.0 5.0 0.00 0.00 0.00 60 1010.5
20260505003502 59 205 3.0 9.0 0.00 0.00 0.00 60 1010.3
20260505003003 59 210 1.0 6.0 0.00 0.00 0.00 60 1010.2
20260505001503 59 208 1.0 3.0 0.00 0.00 0.00 60 1010.1
20260505001003 59 199 1.0 5.0 0.00 0.00 0.00 60 1010.1
20260505000503 59 218 1.0 6.0 0.00 0.00 0.00 60 1010.0
20260505000004 59 212 2.0 7.0 0.00 0.00 0.00 60 1009.9
20260504235504 59 215 2.0 5.0 0.00 0.00 0.00 60 1009.8
20260504234003 60 210 2.0 6.0 0.00 0.00 0.00 59 1009.7
20260504233503 60 204 1.0 7.0 0.00 0.00 0.00 58 1009.7
20260504233002 60 197 1.0 5.0 0.00 0.00 0.00 58 1009.8
20260504232502 60 215 3.0 7.0 0.00 0.00 0.00 57 1009.7
20260504232003 61 174 2.0 5.0 0.00 0.00 0.00 57 1009.6
20260504231503 61 204 2.0 7.0 0.00 0.00 0.00 56 1009.6
20260504231003 61 205 2.0 7.0 0.00 0.00 0.00 55 1009.6
20260504230504 61 185 2.0 6.0 0.00 0.00 0.00 55 1009.5
20260504225003 62 194 3.0 10.0 0.00 0.00 0.00 52 1009.5
20260504224003 63 188 3.0 8.0 0.00 0.00 0.00 50 1009.5
20260504223003 64 219 3.0 8.0 0.00 0.00 0.00 49 1009.6
20260504222503 64 211 3.0 9.0 0.00 0.00 0.00 49 1009.6
20260504222004 64 223 3.0 8.0 0.00 0.00 0.00 48 1009.7
20260504221503 65 237 5.0 9.0 0.00 0.00 0.00 47 1009.7
20260504221002 65 221 6.0 13.0 0.00 0.00 0.00 46 1009.7
20260504220504 65 229 5.0 9.0 0.00 0.00 0.00 45 1009.8
20260504215503 66 233 4.0 10.0 0.00 0.00 0.00 45 1009.8
20260504215003 66 233 6.0 17.0 0.00 0.00 0.00 44 1009.9
20260504214502 66 226 5.0 10.0 0.00 0.00 0.00 44 1009.8
20260504214003 66 194 3.0 7.0 0.00 0.00 0.00 46 1009.8
20260504213004 66 200 4.0 8.0 0.00 0.00 0.00 45 1009.9
20260504212503 66 201 5.0 12.0 0.00 0.00 0.00 44 1009.9
20260504212003 66 202 6.0 12.0 0.00 0.00 0.00 44 1009.8
20260504211503 67 170 5.0 10.0 0.00 0.00 0.00 44 1009.9
20260504211003 67 215 6.0 12.0 0.00 0.00 0.00 45 1009.9
20260504210003 67 226 6.0 14.0 0.00 0.00 0.00 44 1009.8
20260504205502 67 193 5.0 14.0 0.00 0.00 0.00 44 1009.8
20260504205003 68 202 5.0 13.0 0.00 0.00 0.00 44 1009.8
20260504204002 68 237 6.0 13.0 0.00 0.00 0.00 43 1009.9
20260504203503 69 223 6.0 12.0 0.00 0.00 0.00 43 1009.9
20260504203003 69 221 5.0 13.0 0.00 0.00 0.00 41 1009.9
20260504202503 70 215 6.0 13.0 0.00 0.00 0.00 40 1009.9
20260504202004 71 190 4.0 9.0 0.00 0.00 0.00 42 1009.8
20260504201503 71 219 4.0 10.0 0.00 0.00 0.00 40 1009.9
20260504201003 71 174 5.0 9.0 0.00 0.00 0.00 40 1009.9
20260504200503 71 215 5.0 10.0 0.00 0.00 0.00 40 1009.9
20260504200004 72 194 5.0 8.0 0.00 0.00 0.00 40 1009.9
20260504195503 72 217 4.0 9.0 0.00 0.00 0.00 39 1010.0
20260504195004 72 224 5.0 12.0 0.00 0.00 0.00 38 1010.0
20260504194504 72 202 5.0 13.0 0.00 0.00 0.00 38 1010.1
20260504194003 72 204 7.0 13.0 0.00 0.00 0.00 36 1010.1
20260504193503 72 231 7.0 15.0 0.00 0.00 0.00 34 1010.1
20260504191503 72 212 6.0 14.0 0.00 0.00 0.00 35 1010.1
20260504190504 73 223 5.0 12.0 0.00 0.00 0.00 35 1010.2
20260504190002 73 187 4.0 12.0 0.00 0.00 0.00 36 1010.3
20260504185502 73 211 5.0 10.0 0.00 0.00 0.00 36 1010.3
20260504185002 73 190 4.0 12.0 0.00 0.00 0.00 34 1010.4
20260504184503 73 227 9.0 13.0 0.00 0.00 0.00 32 1010.3
20260504184003 73 227 9.0 16.0 0.00 0.00 0.00 31 1010.4
20260504183504 73 187 5.0 10.0 0.00 0.00 0.00 34 1010.5
20260504183003 73 240 8.0 13.0 0.00 0.00 0.00 33 1010.6
20260504182504 73 177 6.0 10.0 0.00 0.00 0.00 34 1010.6
20260504182003 73 244 5.0 9.0 0.00 0.00 0.00 34 1010.6
20260504181503 73 219 5.0 12.0 0.00 0.00 0.00 33 1010.7
20260504181003 73 216 6.0 13.0 0.00 0.00 0.00 34 1010.8
20260504180503 73 221 5.0 12.0 0.00 0.00 0.00 34 1010.8
20260504180003 73 229 7.0 13.0 0.00 0.00 0.00 32 1010.8
20260504175503 72 220 4.0 10.0 0.00 0.00 0.00 36 1010.8
20260504175004 72 241 5.0 12.0 0.00 0.00 0.00 35 1010.8
20260504174503 72 239 7.0 10.0 0.00 0.00 0.00 34 1011.0
20260504174003 71 209 3.0 12.0 0.00 0.00 0.00 38 1011.0
20260504173504 72 220 6.0 13.0 0.00 0.00 0.00 36 1010.9
20260504173005 72 227 5.0 10.0 0.00 0.00 0.00 37 1011.0
20260504172503 72 217 5.0 10.0 0.00 0.00 0.00 35 1011.0
20260504172004 72 236 5.0 12.0 0.00 0.00 0.00 34 1011.1
20260504171503 71 188 4.0 10.0 0.00 0.00 0.00 37 1011.2
20260504171003 71 209 5.0 10.0 0.00 0.00 0.00 35 1011.3
20260504170502 71 201 3.0 10.0 0.00 0.00 0.00 36 1011.4
20260504151004 67 251 6.0 14.0 0.00 0.00 0.00 30 1012.7
20260504141003 65 216 6.0 13.0 0.00 0.00 0.00 36 1012.8
20260504140503 65 219 7.0 14.0 0.00 0.00 0.00 38 1012.8
20260504130503 59 229 5.0 13.0 0.00 0.00 0.00 44 1013.4
20260504110503 52 186 1.0 3.0 0.00 0.00 0.00 52 1013.6
20260504082003 51 187 0.0 3.0 0.00 0.00 0.00 48 1012.8
20260504081503 51 186 0.0 3.0 0.00 0.00 0.00 48 1012.8
20260504081005 51 188 1.0 3.0 0.00 0.00 0.00 49 1012.8
20260504050503 50 186 0.0 2.0 0.00 0.00 0.00 52 1012.1
20260504045003 49 186 1.0 2.0 0.00 0.00 0.00 51 1012.2
20260504044003 49 186 0.0 1.0 0.00 0.00 0.00 49 1012.1
20260504043504 50 186 0.0 2.0 0.00 0.00 0.00 49 1012.1
20260504043003 50 186 0.0 3.0 0.00 0.00 0.00 48 1012.0
20260504042003 50 186 0.0 2.0 0.00 0.00 0.00 48 1012.0
20260504041503 50 186 0.0 2.0 0.00 0.00 0.00 48 1012.0
20260504041004 50 186 0.0 0.0 0.00 0.00 0.00 46 1012.0
20260504040503 50 186 0.0 1.0 0.00 0.00 0.00 48 1012.1
20260504040004 50 186 0.0 2.0 0.00 0.00 0.00 46 1012.0
20260504035003 50 186 0.0 2.0 0.00 0.00 0.00 46 1012.0
20260504034003 51 186 0.0 2.0 0.00 0.00 0.00 48 1011.9
20260504033504 51 186 0.0 2.0 0.00 0.00 0.00 45 1011.9
20260504033003 51 186 0.0 2.0 0.00 0.00 0.00 44 1011.9
20260504032005 51 186 0.0 2.0 0.00 0.00 0.00 45 1011.9
20260504031004 51 186 0.0 3.0 0.00 0.00 0.00 44 1011.9
20260504030505 50 186 1.0 2.0 0.00 0.00 0.00 45 1011.9
20260504030003 50 186 0.0 2.0 0.00 0.00 0.00 45 1011.9
20260504025503 51 186 0.0 2.0 0.00 0.00 0.00 46 1011.9
20260504025003 51 186 0.0 2.0 0.00 0.00 0.00 45 1011.9
20260504024503 50 186 1.0 3.0 0.00 0.00 0.00 45 1011.9
20260504024003 50 186 0.0 3.0 0.00 0.00 0.00 45 1011.9
20260504023503 50 186 0.0 0.0 0.00 0.00 0.00 45 1011.9
20260504023003 51 186 0.0 0.0 0.00 0.00 0.00 45 1011.9
20260504022503 51 186 0.0 0.0 0.00 0.00 0.00 46 1011.9
20260504022004 51 186 0.0 0.0 0.00 0.00 0.00 48 1011.9
20260504021503 51 186 0.0 2.0 0.00 0.00 0.00 49 1011.9
20260504021004 51 186 0.0 0.0 0.00 0.00 0.00 47 1011.8
20260504020004 52 187 0.0 0.0 0.00 0.00 0.00 44 1011.8
20260504015505 52 187 0.0 0.0 0.00 0.00 0.00 43 1011.8
20260504015003 52 187 0.0 0.0 0.00 0.00 0.00 43 1011.8
20260504014503 52 187 0.0 0.0 0.00 0.00 0.00 41 1011.8
20260504014004 53 187 0.0 0.0 0.00 0.00 0.00 39 1011.8
20260504013503 53 187 0.0 0.0 0.00 0.00 0.00 40 1011.7
20260504013004 53 187 0.0 0.0 0.00 0.00 0.00 39 1011.6
20260504012504 53 187 0.0 0.0 0.00 0.00 0.00 39 1011.6
20260504012004 53 188 0.0 0.0 0.00 0.00 0.00 40 1011.6
20260504011503 53 187 0.0 0.0 0.00 0.00 0.00 39 1011.5